Terminal Aerodrome Forecast
Issued by NWS Cleveland, OH

Home | Current Version | Previous Version | Graphics & Text | Print | Product List | Glossary Off
Versions: 1 2 3 4 5 6 7 8 9 10 11 12 13 14 15 16 17 18 19 20 21 22 23 24 25 26 27

000
FTUS41 KCLE 301700
TAFCLE
TAF
KCLE 301737Z 3018/3124 32007KT P6SM SCT025 BKN045
     FM302300 VRB03KT P6SM SCT040 OVC120
     FM310500 19003KT P6SM SCT025 OVC040
     FM311200 22006KT P6SM OVC025
     FM311800 24010KT 3SM -SHRA OVC020=

USA.gov is the U.S. government's official web portal to all federal, state and local government web resources and services.